STARLINK-4092, 52838

Orbit data source: Space-Track

STARLINK-4092, 52838 is a payload satellite owned by SpaceX/Seattle (US) in LEO that was launched on Fri, 17 Jun 2022 UTC via an FALCON 9 launch vehicle from the Air Force Eastern Test Range (AFETR). Payload-class satellites include a variety of spacecraft equipped with specific instruments for various scientific and technological missions. These include communications satellites like Starlink; space stations such as the ISS; scientific satellites like the Hubble; Earth observation satellites from companies like Planet Labs, Umbra, and HawkEye 360; GPS; miniature CubeSats for education and research; and military/defense satellites.

Loading next visibility...
Identifier
52838, 2022-062J
Orbit
LEO
Country
Flag of USUS
Related business
Manufacturer
SpaceX/Seattle
Mission
Operational Commercial Communications
Bus & Motor
STARLINK, Unknown motor
Mass
297 kg wet, ~275 kg dry
Launch date (UTC)
2022-06-17 (4 years ago)
Launch vehicle
FALCON 9
Launch site
Air Force Eastern Test Range (AFETR)
Object type
Payload
Rocket body
Debris
Shape & HBR
Box + 1 Pan, 10.1 m
Radar Cross Section
13.562 m², Large (>1 m²)

Expand to show TLE details & history
Last TLE update: 3 days ago

TLE from 3 days ago
0 STARLINK-4092
1 52838U 22062J   26170.62733294  .00000333  00000-0  39017-4 0  9993
2 52838  53.1582 296.3831 0000518  74.2856 285.8193 15.08829189221170
Epoch: 2026-06-19T15:03Z
TLE epoch observation values (Epoch: 2026-06-19T15:03:21.566Z)
Latitude
0.00004°
Longitude
162.68968°
Altitude
540.57 km
Speed
7.593 km/s
True Right ascension
19h 45m 31s
True Declination
0° 00' 00"
Sunlit
Object was in full shadow at epoch
Visualization orbit readout
Latitude
Unknown
Longitude
Unknown
Altitude
Unknown
Speed
Unknown
Apparent Right ascension
Unknown
Apparent Declination
Unknown
Sunlit
N/A
Visualization observer readout
Local Sidereal Time
21:35:41
Azimuth
Unknown
Elevation
Unknown
Doppler factor
Unknown
Orbital elements
Apogee altitude
540.389 km
Perigee altitude
539.672 km
Semi-major axis
6,918.168 km
Eccentricity
0.00005
Inclination
53.1582°
RAAN
296.3831°
Arg. of periapsis
74.2856°
True anomaly
285.81359°
Mean anomaly
285.8193°
Eccentric anomaly
285.81644°
Mean motion
3.77187 °/min
Orbital period
95.44 mins
BSTAR
0.000039017
Loading maneuver chart data...
Computing Atmospheric mass density...
Loading historical data...
Loading historical data...
Loading historical data...
Loading historical data...
Loading historical data...
Loading historical data...
Loading historical data...

Documentation

Showing up to 5 results
|